Dewpoint
26 32 35 37 33 33 33 34 33 39 39 46 50 50 48 52 54 55 57 62 61 61 62 64 67 68 68 67 67 66 68 67 66 67 68 70 71 70 70 72 71 71 71 73
29 28 29 34 37 34 32 33 33 39 39 49 48 49 50 51 50 55 55 57 64 65 65 64 64 67 69 69 67 68 68 65 63 67 68 69 68 68 72 72 73 72 71 71
32 31 32 35 37 36 36 36 35 29 36 47 47 47 49 53 52 54 53 53 54 62 66 66 66 66 67 68 69 69 69 68 68 67 67 67 66 64 71 71 71 72 72 73
36 36 30 40 36 38 37 35 34 29 39 43 45 46 52 53 52 53 54 56 57 61 66 66 66 67 67 66 66 66 67 68 69 69 70 66 64 69 71 71 71 72 72 72
33 32 32 33 38 37 36 35 34 30 42 44 45 48 51 52 51 53 56 59 61 63 64 66 66 68 67 66 67 68 67 67 68 69 68 69 70 70 70 70 70 71 71 72
32 31 29 36 37 41 40 34 41 31 35 41 46 44 48 49 52 55 58 58 60 61 64 65 64 65 64 64 66 66 67 68 69 69 69 69 69 69 69 70 70 71 71 71
33 32 36 41 39 41 37 37 45 43 44 33 40 48 50 51 55 56 58 59 59 59 61 63 64 64 63 63 63 66 68 69 67 66 66 67 66 67 68 68 69 70 70 69
37 31 31 46 41 38 45 46 48 48 53 53 51 50 50 52 55 55 56 55 56 59 61 63 62 63 62 62 66 68 68 67 65 65 66 66 64 64 64 65 66 67 67 67
41 42 48 50 47 48 47 46 47 47 52 52 50 50 52 54 55 56 53 53 56 59 62 63 64 63 63 63 64 65 66 66 64 64 64 64 64 63 63 63 64 66 66 64
46 46 46 50 53 51 48 45 48 48 52 51 52 53 53 54 54 56 56 53 53 57 60 63 65 63 63 62 64 65 65 65 65 62 59 57 58 60 60 60 61 60 60 59
49 48 48 48 52 53 52 48 46 58 59 56 53 53 54 55 55 55 56 54 56 54 58 63 64 63 63 64 62 63 64 65 64 61 56 53 49 49 55 52 53 59 59 59
46 51 49 52 53 53 52 51 49 53 56 59 56 53 54 55 57 57 57 57 59 57 59 62 62 64 64 63 62 61 62 63 63 62 58 57 55 53 48 46 46 45 47 54
49 53 54 53 53 52 52 51 50 56 59 59 55 50 57 58 57 58 59 61 61 59 59 60 61 64 64 64 63 61 62 61 61 61 61 60 59 56 54 51 46 44 44 45
52 52 52 52 52 52 53 52 53 54 57 57 55 53 57 58 59 59 59 61 63 62 62 61 61 64 64 64 62 61 62 58 61 61 60 60 60 59 58 57 56 54 47 45
54 53 55 55 54 53 53 55 52 53 57 55 53 52 57 60 60 59 61 60 61 62 62 62 62 63 63 64 62 61 61 60 61 61 61 60 60 59 59 57 55 52 52 50
52 53 51 52 53 54 55 56 55 54 54 56 51 53 54 58 58 56 59 59 58 59 62 61 62 63 63 64 63 61 61 59 60 60 59 61 60 60 58 57 55 54 55 53
51 51 50 53 53 54 54 58 58 57 55 52 53 53 53 54 56 58 59 59 61 61 61 60 61 62 61 63 63 62 60 60 59 59 59 60 60 59 59 58 57 56 54 54
51 52 52 52 54 53 55 57 58 58 55 52 53 53 52 52 53 57 57 60 61 59 61 62 62 62 61 61 62 63 61 60 59 59 59 59 60 60 59 58 56 55 55 53
54 54 54 53 54 55 55 55 56 57 55 54 54 54 54 54 56 59 58 60 59 59 61 61 61 60 58 61 62 62 61 60 59 60 59 58 58 59 57 57 56 55 55 53
55 53 53 53 56 57 57 57 58 57 56 55 57 56 55 55 59 59 58 59 58 59 61 58 58 58 58 58 61 55 55 59 59 60 60 59 59 59 58 53 52 51 50 50
57 55 54 54 54 56 58 59 58 57 57 57 57 58 57 57 61 61 59 57 59 57 60 58 59 59 58 59 55 52 50 50 55 58 58 53 53 57 58 56 53 50 48 46
57 56 53 52 51 53 56 58 57 57 58 58 60 59 59 58 61 59 59 57 59 57 59 59 59 59 57 60 55 53 50 50 52 52 50 50 49 48 49 48 45 49 47 47
58 57 57 53 51 53 54 53 54 57 60 60 60 60 59 59 60 59 58 59 58 56 57 58 57 56 54 55 55 52 49 49 52 51 51 52 51 50 49 47 46 46 49 47
57 57 58 59 58 54 55 53 53 52 62 62 61 61 60 58 58 59 59 56 56 53 56 55 54 53 53 55 55 55 56 55 55 53 52 50 48 47 49 50 47 47 47 48
57 57 56 58 58 57 57 55 52 54 61 59 60 60 58 59 56 55 56 57 53 53 55 53 53 52 53 56 55 55 55 55 56 55 53 51 49 49 51 50 50 49 50 50
57 56 55 58 59 58 59 57 57 59 57 56 58 57 56 56 58 56 57 55 54 54 56 54 53 53 54 54 53 53 53 53 53 52 52 52 52 53 52 52 51 51 51 51
58 54 55 59 59 58 58 58 56 56 57 59 57 55 55 55 55 55 54 54 54 53 53 53 53 53 53 54 55 53 51 51 49 50 51 52 52 53 51 50 52 54 54 53
Lifted_Index
1 0 -0 -0 0 0 0 -0 -0 -1 -1 -1 -1 -0 -0 -0 -1 -1 -2 -3 -3 -3 -3 -3 -3 -4 -3 -3 -2 -2 -1 -0 -0 -2 -3 -4 -5 -5 -5 -6 -5 -5 -5 -5
1 0 -0 -0 -0 0 0 0 -0 -1 -1 -1 -1 -0 0 -0 -1 -1 -2 -2 -3 -4 -4 -4 -3 -4 -4 -3 -3 -2 -1 -0 -0 -1 -3 -3 -4 -5 -5 -5 -6 -6 -5 -5
0 0 -0 -0 -0 0 0 0 -0 -0 -1 -1 -1 -0 0 0 -0 -1 -1 -1 -2 -3 -4 -4 -4 -4 -4 -3 -3 -2 -2 -2 -2 -2 -2 -2 -2 -3 -4 -5 -5 -6 -6 -6
0 -0 -0 -0 0 0 0 0 0 -1 -1 -1 -1 -1 0 0 -0 -0 -1 -1 -1 -2 -3 -4 -4 -4 -4 -4 -3 -3 -3 -3 -3 -3 -2 -2 -2 -3 -4 -5 -5 -5 -6 -6
-0 -0 -0 -0 -0 0 0 0 0 -1 -1 -2 -2 -1 -0 -0 0 -0 -0 -1 -1 -2 -3 -3 -4 -4 -4 -3 -4 -4 -4 -3 -3 -3 -3 -3 -3 -3 -4 -4 -4 -5 -5 -5
-0 -0 -0 -1 -0 -0 0 0 -0 -0 -1 -2 -2 -1 -1 -0 -0 -0 -1 -1 -1 -1 -2 -3 -3 -3 -3 -3 -3 -3 -4 -4 -3 -2 -2 -2 -3 -3 -3 -4 -4 -4 -4 -4
-0 -0 -0 -1 -1 -0 -0 -0 -1 -1 -1 -2 -2 -2 -1 -0 -0 -1 -1 -1 -1 -1 -1 -2 -2 -2 -2 -2 -2 -3 -3 -3 -3 -2 -1 -1 -1 -2 -2 -2 -3 -3 -3 -3
-1 -0 -0 -1 -1 -1 -0 -0 -1 -2 -2 -2 -2 -2 -1 -1 -1 -1 -1 -1 -0 -1 -1 -1 -1 -1 -1 -1 -2 -2 -3 -3 -2 -1 -1 -0 -0 -0 -0 -1 -1 -2 -2 -2
-1 -1 -1 -1 -1 -1 -0 -0 -1 -2 -3 -3 -2 -2 -2 -2 -2 -1 -1 -0 0 -0 -1 -1 -1 -1 -1 -1 -1 -1 -2 -2 -2 -1 -0 0 0 0 0 0 -0 -1 -1 -1
-1 -1 -1 -1 -1 -0 -0 -0 -1 -2 -3 -3 -2 -2 -2 -2 -2 -1 -1 -0 0 -0 -1 -1 -1 -1 -0 -0 -0 -1 -1 -2 -1 -1 0 1 1 1 1 1 0 0 0 0
-1 -1 -1 -1 -0 -0 0 -0 -1 -2 -3 -3 -3 -2 -2 -2 -2 -2 -1 -1 -0 -0 -1 -1 -1 -1 -0 0 1 1 -0 -1 -1 -0 0 1 1 2 2 2 1 1 1 1
-0 -0 -0 -0 -0 -0 -0 -0 -1 -2 -2 -2 -2 -2 -2 -2 -2 -2 -2 -2 -1 -1 -1 -2 -1 -1 -0 0 1 1 1 0 -0 -0 0 1 2 2 2 2 2 2 2 2
-0 0 0 0 -0 -0 -0 -0 -1 -1 -2 -1 -1 -2 -2 -2 -2 -2 -2 -3 -2 -2 -2 -2 -2 -1 -1 0 1 1 1 1 1 0 1 1 1 1 2 2 3 3 3 3
-0 0 1 0 0 0 0 0 -0 -1 -1 -1 -1 -1 -2 -2 -2 -3 -3 -3 -3 -3 -3 -2 -2 -2 -1 -0 0 1 2 1 1 1 1 1 1 1 2 2 2 2 3 3
0 0 0 1 1 0 -0 -0 -0 -1 -2 -1 -1 -1 -2 -3 -3 -3 -3 -3 -4 -4 -3 -3 -2 -2 -1 -1 0 1 1 1 1 1 1 1 1 1 1 1 1 2 2 2
-0 0 0 0 0 0 -0 -1 -1 -1 -1 -1 -1 -1 -2 -2 -3 -3 -3 -3 -3 -3 -3 -2 -2 -2 -1 -1 -0 0 1 1 1 1 1 1 1 1 0 0 0 1 1 1
-0 0 0 -0 0 0 0 -0 -0 0 -0 -0 -0 -0 -0 -1 -2 -2 -3 -3 -3 -3 -3 -2 -2 -1 -1 -1 -1 -0 0 0 0 0 0 0 0 -0 -0 -0 -0 -0 -0 -0
-1 -1 -0 -0 -0 0 0 0 0 1 0 -0 -0 0 0 -0 -1 -2 -3 -3 -3 -3 -2 -2 -2 -1 -1 -1 -1 -1 -1 -1 -1 -1 -1 -1 -1 -1 -1 -1 -1 -0 -0 -0
-2 -1 -1 -0 -0 -0 0 1 1 0 -0 -1 -0 -0 -0 -1 -1 -2 -2 -3 -3 -2 -2 -2 -1 -1 -0 -1 -1 -2 -2 -2 -2 -2 -2 -2 -2 -2 -1 -1 0 1 1 1
-2 -2 -1 -0 -0 -0 0 0 -0 -1 -1 -1 -1 -1 -1 -1 -2 -2 -2 -2 -2 -2 -2 -1 -1 -0 -0 -0 -1 -2 -2 -2 -2 -3 -3 -3 -3 -3 -2 -1 0 1 2 2
-2 -2 -1 -0 0 0 0 -0 -1 -1 -2 -2 -2 -2 -2 -2 -3 -3 -2 -2 -2 -1 -1 -1 -1 -0 0 -0 -0 -0 -0 -1 -2 -2 -2 -2 -2 -2 -2 -1 0 1 2 3
-2 -2 -1 -1 -0 0 -0 -0 -1 -2 -2 -2 -2 -2 -2 -3 -3 -3 -2 -2 -1 -1 -0 -0 -0 0 0 0 1 1 1 1 -0 -1 -1 -1 -0 -0 -0 0 1 1 2 2
-2 -2 -2 -1 -1 -1 -1 -1 -1 -2 -3 -3 -3 -3 -3 -3 -3 -2 -2 -2 -1 -0 0 0 0 1 1 1 1 1 2 1 1 1 0 1 1 1 1 2 2 2 2 2
-2 -2 -2 -2 -2 -1 -1 -1 -1 -2 -3 -4 -3 -3 -3 -2 -2 -2 -2 -1 -1 -0 1 1 1 1 2 2 1 1 1 1 1 1 1 1 1 2 2 2 2 2 2 2
-2 -2 -2 -2 -1 -1 -1 -1 -1 -1 -3 -4 -3 -3 -3 -2 -1 -1 -1 -1 -1 -0 1 1 2 2 2 2 2 2 1 1 1 1 1 1 2 2 2 2 2 2 2 2
-1 -1 -1 -1 -1 -0 -0 -1 -1 -1 -2 -3 -3 -3 -2 -2 -1 -1 -1 -1 -0 0 1 2 2 3 3 2 2 2 2 2 2 1 1 1 1 1 1 1 1 1 1 1
-0 -0 -0 -0 -0 -0 0 -0 -1 -1 -1 -2 -2 -3 -2 -2 -1 -1 -0 -0 0 1 1 2 2 3 3 2 2 2 2 3 3 2 2 1 1 1 1 1 1 1 1 0